Weather History for Munich, Germany

Change the Weather History Date:

Saturday, February 2, 2013

  Actual Average Record
Temperature  
Mean Temperature 39 °F -  
Max Temperature 46 °F 38 °F 57 °F (2002)
Min Temperature 32 °F 24 °F 0 °F (2003)
Degree Days  
Heating Degree Days 26    
Moisture  
Dew Point 35 °F    
Average Humidity 89    
Maximum Humidity 100    
Minimum Humidity 80    
Precipitation  
Precipitation 0.00 in - - ()
Sea Level Pressure  
Sea Level Pressure 29.48 in    
Wind  
Wind Speed 11 mph ()    
Max Wind Speed 22 mph    
Max Gust Speed 26 mph    
Visibility 6.1 miles    
Events Rain , Snow    
Averages and records for this station are not official NWS values.
T = Trace of Precipitation, MM = Missing Value Source: Averaged Metar Reports

Daily Weather History Graph

Daily Weather History Graph

Search for Another Location

Airport:

Trip Planner

Search our weather history database for the weather conditions in past years. The results will help you decide how hot, cold, wet, or windy it might be!

Date:

Astronomy

Feb. 02, 2013 Rise Set
Actual Time 7:40 AM CET 5:13 PM CET
Civil Twilight 7:06 AM CET 5:47 PM CET
Nautical Twilight 6:29 AM CET 6:24 PM CET
Astronomical Twilight 5:52 AM CET 7:01 PM CET
Moon No Moon Rise 10:04 AM CET (2/2)
Length of Visible Light 10h 40m
Length of Day
9h 33m
Waning Gibbous, 62% of the Moon is Illuminated
Feb 2
Waning Gibbous
Feb 3
Last Quarter
Feb 10
New
Feb 17
First Quarter
Feb 25
Full

Hourly Weather History & Observations

Time (CET) Temp. Windchill Dew Point Humidity Pressure Visibility Wind Dir Wind Speed Gust Speed Precip Events Conditions
12:20 AM 44.6 °F 39.7 °F 44.6 °F 100% 29.24 in 6.2 mi SSW 9.2 mph - N/A Rain Rain
12:50 AM 44.6 °F 37.8 °F 44.6 °F 100% 29.24 in 6.2 mi SW 15.0 mph - N/A Rain Rain
1:20 AM 46.4 °F 40.4 °F 44.6 °F 93% 29.24 in 6.2 mi WSW 13.8 mph 25.3 mph N/A Rain Light Rain
1:50 AM 46.4 °F 39.2 °F 42.8 °F 87% 29.24 in 6.2 mi West 18.4 mph - N/A Rain Light Rain
2:20 AM 44.6 °F 38.4 °F 41.0 °F 87% 29.24 in 6.2 mi West 12.7 mph - N/A Rain Light Rain
2:50 AM 42.8 °F 38.0 °F 41.0 °F 93% 29.24 in 6.2 mi West 8.1 mph - N/A Rain Light Rain
3:20 AM 42.8 °F 37.5 °F 41.0 °F 93% 29.24 in 6.2 mi SW 9.2 mph - N/A Rain Light Rain
3:50 AM 42.8 °F 38.6 °F 41.0 °F 93% 29.24 in 6.2 mi WSW 6.9 mph - N/A Rain Light Rain
4:20 AM 42.8 °F 39.3 °F 41.0 °F 93% 29.21 in 6.2 mi West 5.8 mph - N/A Rain Light Rain
4:50 AM 42.8 °F 38.0 °F 41.0 °F 93% 29.21 in 6.2 mi West 8.1 mph - N/A Rain Rain
5:20 AM 42.8 °F 36.6 °F 41.0 °F 93% 29.24 in 6.2 mi West 11.5 mph - N/A Rain Rain
5:50 AM 42.8 °F 36.6 °F 41.0 °F 93% 29.24 in 6.2 mi West 11.5 mph - N/A Rain Rain
6:20 AM 41.0 °F 31.9 °F 37.4 °F 87% 29.27 in 6.2 mi WNW 19.6 mph - N/A Rain Rain
6:50 AM 39.2 °F 32.0 °F 37.4 °F 93% 29.27 in 6.2 mi WNW 11.5 mph 26.5 mph N/A Rain Rain
7:20 AM 39.2 °F 30.2 °F 37.4 °F 93% 29.30 in 6.2 mi West 17.3 mph - N/A Rain Rain
7:50 AM 37.4 °F 26.6 °F 35.6 °F 93% 29.33 in 6.2 mi WNW 21.9 mph - N/A Rain Rain
8:20 AM 37.4 °F 27.8 °F 35.6 °F 93% 29.36 in 6.2 mi WNW 17.3 mph - N/A Rain Rain
8:50 AM 37.4 °F 27.5 °F 33.8 °F 87% 29.42 in 6.2 mi WNW 18.4 mph - N/A Rain Light Rain
9:20 AM 35.6 °F 26.2 °F 33.8 °F 93% 29.42 in 6.2 mi West 15.0 mph - N/A Rain Light Rain
9:50 AM 35.6 °F 25.5 °F 33.8 °F 93% 29.44 in 6.2 mi WNW 17.3 mph - N/A Rain Light Rain
10:20 AM 35.6 °F 25.5 °F 33.8 °F 93% 29.47 in 6.2 mi WNW 17.3 mph - N/A   Mostly Cloudy
10:50 AM 37.4 °F 28.9 °F 32.0 °F 81% 29.50 in 6.2 mi WNW 13.8 mph - N/A   Mostly Cloudy
11:20 AM 35.6 °F 26.6 °F 33.8 °F 93% 29.50 in 6.2 mi WNW 13.8 mph - N/A Snow Light Snow Showers
11:50 AM 33.8 °F 25.3 °F 32.0 °F 93% 29.53 in 3.7 mi WNW 11.5 mph - N/A Snow Light Snow Showers
12:20 PM 35.6 °F 26.6 °F 33.8 °F 93% 29.53 in 6.2 mi WNW 13.8 mph - N/A   Mostly Cloudy
12:50 PM 35.6 °F 27.5 °F 33.8 °F 93% 29.53 in 6.2 mi West 11.5 mph - N/A Rain Light Rain
1:20 PM 35.6 °F 27.5 °F 33.8 °F 93% 29.53 in 6.2 mi West 11.5 mph - N/A   Mostly Cloudy
1:50 PM 37.4 °F 29.8 °F 33.8 °F 87% 29.53 in 6.2 mi WNW 11.5 mph - N/A   Mostly Cloudy
2:20 PM 37.4 °F 30.3 °F 32.0 °F 81% 29.56 in 6.2 mi WNW 10.4 mph - N/A   Mostly Cloudy
2:50 PM 37.4 °F 29.8 °F 32.0 °F 81% 29.56 in 6.2 mi WNW 11.5 mph - N/A   Mostly Cloudy
3:20 PM 37.4 °F 30.3 °F 32.0 °F 81% 29.56 in 6.2 mi WNW 10.4 mph - N/A   Mostly Cloudy
3:50 PM 37.4 °F 30.8 °F 32.0 °F 81% 29.59 in 6.2 mi WNW 9.2 mph - N/A   Mostly Cloudy
4:20 PM 37.4 °F 30.8 °F 32.0 °F 81% 29.59 in - WNW 9.2 mph - N/A   Clear
4:50 PM 37.4 °F 29.3 °F 32.0 °F 81% 29.59 in 6.2 mi West 12.7 mph - N/A   Mostly Cloudy
5:20 PM 35.6 °F 27.5 °F 32.0 °F 87% 29.62 in 6.2 mi West 11.5 mph - N/A   Mostly Cloudy
5:50 PM 35.6 °F 28.0 °F 32.0 °F 87% 29.62 in 6.2 mi WNW 10.4 mph - N/A Rain Light Rain
6:20 PM 35.6 °F 28.0 °F 32.0 °F 87% 29.65 in - WNW 10.4 mph - N/A   Clear
6:50 PM 35.6 °F 29.2 °F 32.0 °F 87% 29.65 in - WNW 8.1 mph - N/A   Clear
7:20 PM 35.6 °F 28.6 °F 32.0 °F 87% 29.68 in - West 9.2 mph - N/A   Clear
7:50 PM 35.6 °F 28.0 °F 32.0 °F 87% 29.68 in 6.2 mi West 10.4 mph - N/A   Mostly Cloudy
8:20 PM 35.6 °F 28.6 °F 32.0 °F 87% 29.68 in 6.2 mi West 9.2 mph - N/A   Mostly Cloudy
8:50 PM 35.6 °F 28.6 °F 32.0 °F 87% 29.71 in 6.2 mi WNW 9.2 mph - N/A   Mostly Cloudy
9:20 PM 35.6 °F 28.6 °F 32.0 °F 87% 29.71 in 6.2 mi WNW 9.2 mph - N/A   Mostly Cloudy
9:50 PM 33.8 °F 23.5 °F 30.2 °F 87% 29.74 in 2.5 mi NW 16.1 mph - N/A Snow Light Snow Showers
10:20 PM 33.8 °F 24.8 °F 30.2 °F 87% 29.74 in 6.2 mi NNW 12.7 mph - N/A   Mostly Cloudy
10:50 PM 33.8 °F 24.3 °F 30.2 °F 87% 29.77 in 6.2 mi NW 13.8 mph - N/A   Mostly Cloudy
11:20 PM 32.0 °F 22.1 °F 28.4 °F 87% 29.77 in 6.2 mi NNW 13.8 mph - N/A   Mostly Cloudy
11:50 PM 32.0 °F 22.5 °F 26.6 °F 80% 29.80 in - NNW 12.7 mph - N/A   Clear